User: anonymous   Login
Location: Maccacari
(45.1333°N, 11.1333°E)
Time: 10:04:47
(UTC+00:00)
Language:

SR - Orbit

View from above orbital plane
View from above orbital plane
View from above satellite
View from above satellite

Ground track
Ground track

The orbit data is extracted from the following two-line orbital elements,

1 00046U 60007B   21023.80504680 -.00000013  00000-0  20593-4 0  9990
2 00046  66.6897 171.1227 0214497 325.3454  33.3829 14.49360379171045
Epoch (UTC): 23 January 2021 19:19:16
Eccentricity: 0.0214497
inclination: 66.6897°
perigee height: 575 km
apogee height: 880 km
right ascension of ascending node: 171.1227°
argument of perigee: 325.3454°
revolutions per day: 14.49360379
mean anomaly at epoch: 33.3829°
orbit number at epoch: 17104

The dashed part of the orbit path shows where the satellite is in the earth's shadow,  

DLR